Weather History for Rawlins, WY

Change the Weather History Date:

Friday, August 16, 2013

  Actual Average Record
Temperature  
Mean Temperature 68 °F 66 °F  
Max Temperature 90 °F 82 °F 90 °F (1962)
Min Temperature 46 °F 49 °F 38 °F (1968)
Degree Days  
Heating Degree Days 0 2  
Month to date heating degree days 7 18  
Since 1 June heating degree days 108 243  
Since 1 July heating degree days 7 53  
Cooling Degree Days 3 2  
Month to date cooling degree days 55 44  
Year to date cooling degree days 255 161  
Since 1 June cooling degree days 254 161  
Growing Degree Days 18 (Base 50)    
Moisture  
Dew Point 25 °F    
Average Humidity 32    
Maximum Humidity 56    
Minimum Humidity 7    
Precipitation  
Precipitation 0.00 in 0.02 in 0.12 in (1984)
Month to date precipitation 0.21 0.41  
Year to date precipitation 3.43 6.20  
Sea Level Pressure  
Sea Level Pressure 30.00 in    
Wind  
Wind Speed 3 mph (NNW)    
Max Wind Speed 17 mph    
Max Gust Speed 24 mph    
Visibility 10 miles    
Events      
T = Trace of Precipitation, MM = Missing Value Source: NWS Daily Summary

Daily Weather History Graph

Daily Weather History Graph

Search for Another Location

Airport:

Trip Planner

Search our weather history database for the weather conditions in past years. The results will help you decide how hot, cold, wet, or windy it might be!

Date:

Astronomy

Aug. 16, 2013 Rise Set
Actual Time 6:18 AM MDT 8:06 PM MDT
Civil Twilight 5:48 AM MDT 8:36 PM MDT
Nautical Twilight 5:12 AM MDT 9:12 PM MDT
Astronomical Twilight 4:32 AM MDT 9:51 PM MDT
Moon 4:30 PM MDT (8/16) 1:22 AM MDT (8/16)
Length of Visible Light 14h 48m
Length of Day
13h 48m
Waxing Gibbous, 75% of the Moon is Illuminated
Aug 16
Waxing Gibbous
Aug 20
Full
Aug 28
Last Quarter
Sep 5
New
Sep 12
First Quarter

Hourly Weather History & Observations

Time (MDT) Temp. Dew Point Humidity Pressure Visibility Wind Dir Wind Speed Gust Speed Precip Events Conditions
12:53 AM 57.9 °F 28.0 °F 32% 29.99 in 10.0 mi Calm Calm - N/A   Clear
1:53 AM 57.0 °F 30.0 °F 36% 29.99 in 10.0 mi Calm Calm - N/A   Clear
2:53 AM 57.0 °F 30.9 °F 37% 29.96 in 10.0 mi ENE 9.2 mph - N/A   Clear
3:53 AM 53.1 °F 30.9 °F 43% 30.00 in 10.0 mi West 3.5 mph - N/A   Clear
4:53 AM 48.9 °F 34.0 °F 56% 30.01 in 10.0 mi Calm Calm - N/A   Clear
5:53 AM 48.0 °F 32.0 °F 54% 30.03 in 10.0 mi North 6.9 mph - N/A   Clear
6:53 AM 48.0 °F 33.1 °F 56% 30.05 in 10.0 mi East 4.6 mph - N/A   Clear
7:53 AM 55.9 °F 34.0 °F 44% 30.06 in 10.0 mi Calm Calm - N/A   Clear
8:53 AM 60.1 °F 33.1 °F 36% 30.08 in 10.0 mi Calm Calm - N/A   Clear
9:53 AM 66.0 °F 30.9 °F 27% 30.07 in 10.0 mi Calm Calm - N/A   Clear
10:53 AM 73.9 °F 28.9 °F 19% 30.05 in 10.0 mi Variable 3.5 mph - N/A   Clear
11:53 AM 79.0 °F 25.0 °F 14% 30.03 in 10.0 mi Variable 3.5 mph - N/A   Clear
12:53 PM 86.0 °F 19.0 °F 8% 29.98 in 10.0 mi NE 4.6 mph - N/A   Clear
1:53 PM 84.9 °F 15.1 °F 7% 29.97 in 10.0 mi Calm Calm - N/A   Clear
2:53 PM 86.0 °F 15.1 °F 7% 29.96 in 10.0 mi ESE 8.1 mph - N/A   Clear
3:53 PM 87.1 °F 17.1 °F 8% 29.95 in 10.0 mi WSW 6.9 mph - N/A   Clear
4:53 PM 84.9 °F 16.0 °F 8% 29.96 in 10.0 mi West 6.9 mph - N/A   Clear
5:53 PM 86.0 °F 16.0 °F 7% 29.96 in 10.0 mi Calm Calm - N/A   Clear
6:53 PM 84.9 °F 15.1 °F 7% 29.95 in 10.0 mi NW 5.8 mph - N/A   Clear
7:53 PM 78.1 °F 21.0 °F 12% 29.96 in 10.0 mi Calm Calm - N/A   Clear
8:53 PM 69.1 °F 24.1 °F 18% 29.98 in 10.0 mi Calm Calm - N/A   Clear
9:53 PM 66.9 °F 19.0 °F 16% 29.98 in 10.0 mi NW 4.6 mph - N/A   Clear
10:53 PM 63.0 °F 19.9 °F 19% 29.96 in 10.0 mi Calm Calm - N/A   Clear
11:53 PM 60.1 °F 26.1 °F 27% 29.96 in 10.0 mi NNW 3.5 mph - N/A   Clear